Flag for Belarus Weather past 2 weeks in Minsk, Belarus

Now
75 °F

Sunny.


Feels Like: 78 °F
Forecast: 50 / 65 °F
Wind: 1 mph from Southeast

Location: Loshitsa / Minsk International 1

Current Time: Sep 2, 2015 at 11:52:59 AM

Latest Report: Sep 2, 2015 at 11:30 AM


Visibility: 10 mi

Pressure: 29.71 "Hg

Humidity: 54%

Dew point: 57 °F

Location of MinskLocation

Historic Weather in Minsk — Graph

°F

Minsk temperature yesterday

Maximum temperature yesterday: 86 °F (at 4:00 PM)
Minimum temperature yesterday: 57 °F (at 7:30 AM)
Average temperature yesterday: 74 °F

Past Weeks' High & Low Weather Summary

 TemperatureHumidityPressure
High86 °F (Aug 25, 4:00 PM)100% (Aug 26, 9:00 AM)30.42 "Hg (Aug 26, 9:00 AM)
Low50 °F (Aug 19, 7:00 AM)25% (Aug 21, 6:00 PM)29.71 "Hg (Sep 2, 8:00 AM)
Average70 °F49%30.14 "Hg
* Reported Aug 18 10:00 AM — Sep 2 10:30 AM, Minsk, Weather by CustomWeather, © 2015

Note: Actual official high and low records may vary slightly from our data, if they occured in-between our weather recording intervals... More about our weather records

Advertising

Minsk weather history for previous 24 hours

 ConditionsComfort  
Time TempWeatherWind HumidityBarometerVisibility
10:30 AM
Wed, Sep 2
70 °FSunny.1 mph60%29.71 "Hg10 mi
10:00 AM70 °FSunny.3 mph60%29.71 "Hg10 mi
9:30 AM64 °FSunny.1 mph68%29.71 "Hg10 mi
9:00 AM64 °FSunny.6 mph68%29.71 "Hg10 mi
8:30 AM63 °FSunny.6 mph68%29.71 "Hg10 mi
8:00 AM63 °FSunny.6 mph68%29.71 "Hg10 mi
5:30 PM
Tue, Sep 1
86 °FSunny.8 mph33%29.77 "Hg10 mi
5:00 PM86 °FSunny.8 mph33%29.77 "Hg10 mi
4:30 PM86 °FSunny.10 mph33%29.80 "Hg10 mi
4:00 PM86 °FSunny.10 mph33%29.80 "Hg10 mi
3:30 PM84 °FSunny.10 mph37%29.83 "Hg10 mi
3:00 PM84 °FSunny.10 mph37%29.83 "Hg10 mi
2:30 PM82 °FSunny.10 mph35%29.83 "Hg10 mi
2:00 PM82 °FSunny.10 mph35%29.83 "Hg10 mi
1:30 PM79 °FSunny.10 mph39%29.89 "Hg10 mi
1:00 PM79 °FSunny.10 mph39%29.89 "Hg10 mi
12:30 PM73 °FSunny.10 mph44%29.89 "Hg10 mi
12:00 PM73 °FSunny.10 mph44%29.92 "Hg10 mi
11:30 AM70 °FSunny.10 mph46%29.92 "Hg10 mi
11:00 AM70 °FSunny.10 mph46%29.92 "Hg10 mi
Weather by CustomWeather, © 2015

See weather overviewHow to use our weather pages